Theta_e
313 313 313 312 308 303 301 301 300 300 299 299 298 298 298 298 297 297 297 296 296 296 296 295 295 295 295 295 294 294 293 293 292 292 291 291 291 290 290 289 289 289
313 312 311 309 305 302 300 300 299 299 299 298 298 298 298 298 297 297 297 296 296 296 295 295 295 295 295 294 294 293 293 292 291 291 291 291 290 290 290 289 289 289
312 310 308 305 303 301 299 299 298 298 298 297 297 297 297 297 297 297 297 296 296 296 295 295 295 295 294 294 293 293 292 291 291 290 290 290 290 289 289 289 288 288
311 308 305 303 301 300 299 298 298 297 297 297 297 297 297 297 297 297 297 296 296 295 295 295 295 294 294 294 293 292 291 290 290 290 290 290 289 289 289 289 288 288
309 305 303 301 300 299 298 298 297 297 297 297 297 297 297 297 297 297 297 296 296 296 295 295 295 294 294 293 292 291 290 290 290 290 290 289 289 289 289 288 288 288
306 303 302 300 299 298 297 297 297 297 297 297 297 297 296 296 296 296 296 296 296 296 295 295 295 294 294 293 292 291 290 290 290 290 289 289 289 289 289 288 288 288
304 302 301 299 298 297 297 297 296 296 296 296 296 296 296 296 296 296 296 296 296 296 295 295 294 294 293 292 291 290 290 290 289 289 289 289 289 289 289 288 288 288
303 301 300 298 297 297 296 296 296 296 296 296 296 296 296 296 296 296 296 296 296 295 295 295 294 293 293 292 291 290 289 289 289 289 289 289 289 289 288 288 288 288
302 301 299 297 296 296 296 296 296 296 296 296 296 296 295 295 295 296 296 296 295 295 295 295 294 293 293 292 291 290 289 289 289 289 289 289 288 288 288 288 288 288
302 300 299 297 296 296 295 295 295 295 295 295 295 295 295 295 295 295 295 295 295 295 295 294 294 294 293 292 291 290 290 289 289 289 289 288 288 288 288 288 288 288
302 300 298 297 296 295 295 295 295 295 295 295 295 295 295 295 295 295 295 295 295 295 295 295 294 294 293 292 291 290 290 289 289 289 289 288 288 288 288 288 288 287
303 300 298 297 296 295 295 295 295 295 295 295 295 294 295 295 295 295 295 295 295 295 295 294 294 293 293 292 291 290 290 290 290 289 289 288 288 288 288 288 287 287
304 301 298 297 295 295 294 294 294 294 294 294 294 294 294 295 295 295 295 295 295 294 294 294 293 293 292 292 291 290 290 291 290 289 288 288 288 288 287 287 287 287
304 301 299 297 295 294 294 294 294 294 294 294 294 294 294 294 294 294 294 294 294 294 294 293 293 293 292 291 291 290 290 291 290 289 288 288 288 288 287 287 287 287
304 301 299 297 295 294 294 294 294 294 294 294 294 294 294 294 293 293 293 294 293 293 293 293 293 292 291 291 291 290 291 291 290 289 288 288 288 287 287 288 287 287
304 301 300 298 296 294 294 294 293 294 294 293 293 294 293 293 293 293 293 293 293 293 293 292 292 291 291 291 290 291 291 290 289 289 289 288 288 288 288 288 288 287
304 301 299 298 296 295 293 293 293 293 293 293 293 293 293 293 293 293 292 292 292 292 292 292 292 291 291 291 291 291 291 290 290 289 289 288 288 288 288 288 288 287
304 301 299 297 296 295 294 293 293 293 293 293 293 293 293 293 292 292 292 292 292 292 291 291 291 291 290 290 291 291 290 290 290 290 289 288 288 288 288 288 288 288
304 301 299 298 296 295 294 293 293 293 293 293 293 293 292 292 292 292 292 292 292 291 291 291 290 290 290 290 290 290 290 291 290 289 289 288 288 288 288 288 288 287
303 301 299 297 296 295 294 294 293 293 292 293 293 292 292 292 292 292 292 292 292 291 291 291 290 290 290 290 290 290 291 291 290 289 288 288 288 288 288 288 288 287
301 300 299 297 296 295 294 294 293 292 293 293 293 292 292 292 292 292 292 292 291 291 291 290 290 290 289 289 290 292 293 291 290 289 288 288 288 288 288 288 288 287
301 299 298 297 296 295 295 294 293 293 293 293 293 292 292 291 291 291 292 291 291 290 290 290 290 289 289 289 291 293 293 291 289 289 288 288 288 288 288 288 288 287
301 300 299 298 297 295 294 294 295 295 294 293 292 292 291 291 291 292 291 291 290 290 290 290 290 289 289 289 291 292 292 290 289 289 288 289 288 288 288 288 288 287
300 299 298 298 297 296 296 296 297 297 295 293 292 291 291 291 291 291 291 291 290 289 290 289 289 289 289 289 290 290 290 289 289 289 289 289 288 288 288 288 288 288
298 298 298 298 298 298 298 298 297 296 295 293 292 291 291 291 291 291 290 290 289 289 289 289 289 289 288 288 289 289 289 288 288 288 289 289 288 288 288 288 288 288
297 298 298 298 298 298 297 297 296 295 294 293 291 291 291 290 290 290 289 289 289 289 289 289 289 288 288 288 288 288 288 288 288 288 288 288 288 288 287 287 287 287
Wind_Speed
29 29 29 30 33 36 36 33 31 29 27 25 24 23 22 20 18 17 15 14 12 10 8 6 5 3 3 3 4 4 4 4 4 4 3 3 3 3 4 4 5 5
31 30 30 33 36 38 35 32 31 29 27 25 24 23 21 20 19 17 15 13 12 10 8 7 5 5 5 5 5 5 5 5 4 4 3 3 3 4 4 4 5 5
32 32 33 36 38 38 35 33 31 28 27 26 25 23 22 20 19 18 16 14 13 11 9 8 7 6 6 6 6 6 6 5 5 4 4 3 4 4 4 5 5 6
34 34 35 38 38 37 35 33 32 30 29 27 26 24 22 21 20 18 17 15 14 12 10 9 9 8 8 8 8 7 7 6 6 5 5 4 5 4 5 6 6 7
35 36 37 39 39 37 35 34 33 32 30 28 26 25 24 22 21 19 18 16 15 13 12 11 10 10 10 10 10 9 8 7 7 7 6 6 6 5 6 6 7 8
37 38 39 40 39 38 37 35 34 32 31 29 27 26 25 23 21 19 18 17 15 14 13 12 12 11 12 11 11 10 9 8 8 8 7 7 7 7 7 8 8 9
39 40 41 41 40 39 37 36 35 33 31 29 28 27 25 24 22 20 18 17 16 15 14 13 13 13 12 12 11 10 10 10 10 9 8 8 8 8 8 9 9 9
40 41 42 42 41 40 39 37 36 34 32 30 29 28 26 24 22 21 20 18 17 16 16 15 14 14 13 12 11 11 11 10 10 10 10 10 10 9 9 10 10 10
41 43 43 43 42 41 40 39 37 35 33 31 30 28 26 25 23 22 21 20 19 18 17 16 15 14 13 13 12 11 11 11 11 11 11 11 11 11 10 10 11 11
43 44 44 44 44 43 42 40 38 36 34 32 31 29 28 26 25 24 23 22 21 19 18 17 16 15 15 14 13 12 11 12 12 12 13 13 12 12 11 11 12 12
45 46 46 45 45 45 43 41 39 37 35 34 32 31 29 28 27 26 25 23 22 20 18 18 17 17 16 15 14 13 13 13 13 14 14 14 13 13 12 12 13 13
46 48 48 47 46 46 44 42 40 38 37 35 33 32 31 30 29 27 26 24 22 20 20 19 19 19 17 16 15 15 14 14 15 15 16 15 14 14 14 14 14 14
47 49 49 49 48 46 45 43 41 39 37 36 34 33 32 31 29 28 26 24 23 22 22 22 21 20 19 18 17 16 15 15 16 17 17 16 15 15 15 15 15 15
47 48 49 49 49 47 45 44 42 40 38 36 35 34 33 32 30 28 26 25 24 24 24 24 23 22 21 19 18 17 17 17 18 18 18 17 16 16 16 16 15 16
47 48 48 49 50 48 46 45 43 41 39 37 36 35 34 33 31 29 28 27 26 26 26 26 25 24 22 19 18 18 19 20 19 19 18 18 17 17 17 16 16 16
47 47 48 49 50 48 47 45 43 42 40 39 38 37 35 34 33 31 30 29 28 28 29 28 27 25 22 20 19 20 21 21 20 20 20 19 18 18 17 17 16 16
47 47 47 49 50 48 47 46 44 43 42 40 39 38 37 36 35 33 32 31 31 31 30 29 28 25 23 21 21 22 23 22 21 21 21 20 19 19 18 17 17 16
46 47 47 48 49 48 47 46 45 44 43 41 40 39 38 38 37 35 34 33 34 33 32 31 29 26 24 23 23 24 24 24 23 24 23 21 20 19 18 18 17 16
46 47 47 47 48 47 46 46 46 45 44 41 41 40 40 39 38 37 36 36 36 35 34 32 30 27 26 25 25 25 26 26 26 26 25 23 21 20 19 19 18 17
46 47 46 47 47 47 46 46 46 45 43 42 42 42 42 41 40 40 39 38 38 37 35 34 31 29 28 27 27 27 28 28 28 28 27 25 22 21 21 20 19 18
46 46 46 46 46 46 46 46 46 44 43 43 44 44 44 43 42 42 41 41 40 38 37 35 33 31 30 29 29 29 29 29 30 31 29 26 24 23 23 22 20 19
45 44 44 44 44 45 45 45 44 43 44 45 45 45 45 45 44 44 43 42 41 40 39 37 35 34 32 31 30 30 30 30 32 33 31 29 27 26 25 24 23 22
41 42 42 42 43 44 44 43 43 44 45 46 46 46 46 46 46 46 45 44 43 42 41 39 37 36 35 34 33 33 32 33 34 34 33 32 31 29 27 26 25 25
38 39 39 40 40 41 42 42 43 44 44 45 46 47 47 47 47 47 47 47 45 44 42 40 39 37 37 36 36 36 36 36 36 35 35 35 34 31 30 29 28 28
32 33 34 35 36 37 39 41 42 42 43 44 45 47 47 48 49 49 49 48 46 44 43 42 40 39 39 39 38 38 39 39 39 37 37 38 37 34 32 32 31 31
26 27 28 29 30 30 32 34 37 39 42 43 45 46 48 49 50 50 49 48 46 45 44 44 43 42 41 41 40 40 41 41 41 41 40 40 39 37 36 35 34 33
Wind_Direction
217 216 215 212 205 198 193 190 190 191 191 188 186 185 182 182 183 183 184 182 182 186 186 184 183 187 216 239 248 251 245 246 251 254 262 277 289 300 308 308 311 312
217 214 211 207 201 198 195 194 193 193 192 188 187 186 185 185 186 185 186 186 186 188 186 185 189 200 222 234 236 236 233 237 240 242 253 270 280 290 297 299 302 305
215 210 206 204 200 198 197 195 194 193 192 190 188 189 189 188 189 189 187 188 189 188 186 188 195 208 221 226 226 225 225 227 230 236 249 260 271 281 289 294 298 300
212 207 204 202 201 200 199 197 195 193 193 193 191 191 192 191 192 192 190 190 189 189 189 193 202 212 218 220 219 219 218 220 225 234 245 253 261 271 281 288 290 291
209 204 202 203 203 202 201 200 198 196 195 195 194 194 195 195 195 194 193 192 190 191 194 199 206 213 216 217 215 215 216 221 228 234 241 246 252 263 272 277 280 283
207 203 202 204 204 204 204 202 200 199 198 197 198 198 197 196 196 195 195 195 194 195 199 203 208 212 215 215 213 213 216 223 232 235 237 241 246 256 263 267 271 275
206 203 203 205 206 206 206 204 202 202 201 200 200 200 199 197 196 196 197 197 197 199 201 204 209 213 215 215 215 217 219 225 232 235 239 243 247 252 255 260 265 268
206 204 204 206 207 207 207 206 205 203 202 202 202 201 201 198 198 199 199 199 199 202 204 205 209 213 215 218 220 221 223 230 234 237 243 247 249 251 253 256 260 265
208 206 206 207 208 208 208 207 206 205 204 205 204 202 201 199 200 203 203 202 203 204 205 207 211 214 217 221 222 222 229 238 241 243 247 249 249 251 252 256 260 264
210 209 209 210 210 210 209 208 207 207 206 206 205 204 203 202 203 205 205 205 206 206 207 210 213 217 220 222 223 226 233 241 246 250 252 250 248 250 254 258 262 265
212 211 211 211 212 212 211 209 208 208 208 207 206 205 205 206 207 208 208 208 209 209 211 214 217 220 222 224 227 230 233 241 250 256 255 251 249 251 256 259 262 265
215 213 213 213 214 213 212 211 210 210 210 209 208 207 208 210 212 212 211 210 212 213 215 218 220 222 223 225 228 231 236 245 253 257 255 252 251 254 257 260 262 265
217 216 215 214 215 215 214 212 212 212 212 211 210 210 211 214 216 215 214 214 215 217 219 220 222 223 225 226 228 232 240 249 254 257 256 253 253 256 258 260 263 265
219 219 218 217 217 217 215 214 214 214 214 213 213 213 215 218 219 218 217 217 218 220 222 224 225 226 226 228 231 235 245 252 254 255 255 254 254 257 258 261 264 266
221 221 220 219 218 218 217 216 216 216 216 216 216 217 219 220 221 221 221 222 223 224 225 227 229 228 227 230 234 241 251 255 253 254 256 255 255 258 260 263 267 268
224 223 222 220 219 219 219 218 218 218 218 218 218 220 222 223 223 223 224 226 228 229 229 230 231 230 230 232 236 246 254 254 252 256 258 256 256 258 262 266 268 269
226 224 223 221 220 220 220 220 220 221 221 221 221 223 224 225 226 226 227 229 231 232 233 234 234 233 231 234 240 248 252 251 255 259 258 256 257 258 262 267 269 269
228 226 225 223 222 222 222 222 223 224 224 223 224 226 227 228 229 230 231 232 233 234 235 236 236 233 232 237 244 248 250 253 258 259 256 255 257 258 262 266 267 269
229 227 226 224 224 224 224 224 225 226 227 227 229 230 230 231 233 234 235 236 237 237 237 237 235 233 234 239 244 246 251 257 259 257 255 254 255 258 262 264 265 268
229 229 227 226 226 226 226 226 227 228 230 232 233 233 234 235 236 237 238 239 240 240 240 239 237 234 236 239 243 250 257 260 258 255 253 252 254 258 261 261 262 265
230 229 229 228 228 228 229 229 229 230 233 236 237 236 237 238 239 240 242 243 243 242 242 241 239 236 236 238 245 257 263 260 256 254 252 253 255 258 260 260 259 261
231 231 232 232 231 231 232 231 232 234 237 239 239 239 240 240 241 243 245 246 245 244 244 244 242 238 236 239 249 261 265 259 254 253 253 255 257 258 259 259 258 259
235 235 235 235 235 235 235 235 237 240 241 241 241 241 242 243 244 246 248 248 246 245 246 246 244 239 237 240 250 259 261 257 255 254 256 259 259 258 259 259 259 259
240 240 239 239 239 240 241 243 246 247 246 244 243 244 245 247 249 250 250 248 246 246 247 248 246 243 241 243 249 254 255 254 255 256 259 261 259 257 259 260 260 261
242 242 243 244 246 248 250 253 254 253 250 248 247 247 248 250 250 250 250 249 248 248 249 249 248 246 244 245 248 251 252 252 253 256 260 263 260 258 259 261 262 262
244 247 250 253 258 260 261 262 260 258 255 252 250 249 250 250 251 251 251 250 250 251 251 251 251 250 248 247 249 251 252 252 253 256 261 263 263 261 262 263 264 264